Regional Weather Roundup
Issued by NWS Binghamton, NY

Home | Current Version | Previous Version | Text Only | Print | Product List | Glossary On
Versions: 1 2 3 4 5 6 7 8 9 10 11 12 13 14 15 16 17 18 19 20 21 22 23 24 25 26 27 28 29 30 31 32 33 34 35 36 37 38 39 40 41 42 43 44 45 46 47 48 49 50
000
ASUS41 KBGM 201810
RWRBGM
RWRBGM
BINGHAMTON REGIONAL WEATHER ROUNDUP
NATIONAL WEATHER SERVICE BINGHAMTON NY
100 PM EST SAT DEC 20 2014

Note: "fair" indicates few or no clouds below 12,000 feet with no
significant weather and/or obstructions to visibility.

* = Station(s) that does not report precipitation, such as rain,
snow, etc, also no thunder or fog.

!NYZ009-015>018-022>025-036-037-044>046-055>057-062-201900
...CENTRAL NEW YORK...

CITY           SKY/WX    TMP DP  RH WIND       PRES   REMARKS
BINGHAMTON     CLOUDY    25  20  81 N5        30.18F WCI  19
CORTLAND       CLOUDY    28  23  80 CALM      30.23F
DANSVILLE      CLOUDY    30  20  66 CALM      30.25F
ELMIRA         CLOUDY    30  21  69 N6        30.22F WCI  24
ITHACA         FLURRIES  28  22  78 NW6       30.24F WCI  22
HAMILTON       CLOUDY    28  21  74 CALM      30.23F
MONTICELLO     CLOUDY    25  19  80 N5        30.20F WCI  19
NORWICH        CLOUDY    27  19  74 NE5       30.24F WCI  21
ONEONTA        CLOUDY    21  18  86 CALM      30.19S
PENN YAN       CLOUDY    29  20  69 W3        30.24F
ROME           MOSUNNY   26  19  74 CALM      30.30S
SIDNEY         CLOUDY    28  21  74 CALM      30.23F
SYRACUSE       CLOUDY    27  21  78 CALM      30.28F
$$

!PAZ038>040-043-044-047-048-072-201900
...NORTHEAST PENNSYLVANIA...

CITY           SKY/WX    TMP DP  RH WIND       PRES   REMARKS
HAZLETON       CLOUDY    28  21  74 N5        30.20F WCI  23
SCRANTON       CLOUDY    31  19  61 N7        30.21F WCI  24
TOWANDA*         N/A    N/A N/A N/A N6        30.24F
$$
&&
KEY
WCI = WIND CHILL INDEX
VSB = VISIBILITY
HX  = HEAT INDEX
$$


USA.gov is the U.S. government's official web portal to all federal, state and local government web resources and services.